Date,TemperatureHighF,TemperatureAvgF,TemperatureLowF,DewpointHighF,DewpointAvgF,DewpointLowF,HumidityHigh,HumidityAvg,HumidityLow,PressureMaxIn,PressureMinIn,WindSpeedMaxMPH,WindSpeedAvgMPH,GustSpeedMaxMPH,PrecipitationSumIn
2013-1-1,30.6,19.9,9.8,26.9,15.5,7.0,92,83,71,30.05,29.85,11,3,25,0.00
2013-1-2,23.1,17.4,10.4,19.2,13.4,8.0,92,84,74,30.24,30.01,6,2,24,0.00
2013-1-3,25.5,19.5,10.4,23.6,16.7,8.0,94,89,78,30.23,30.01,9,3,22,0.00
2013-1-4,31.5,28.4,25.0,24.9,21.9,18.3,87,77,61,30.03,29.89,16,9,35,0.01
2013-1-5,32.1,28.9,26.6,25.5,23.3,21.1,86,79,70,30.31,30.02,14,4,27,0.02
2013-1-6,35.3,31.9,28.1,30.8,28.1,22.8,97,86,77,30.08,29.90,10,5,23,0.07
2013-1-7,31.5,26.5,23.0,30.5,22.8,19.4,96,86,75,30.40,30.07,9,3,19,0.01
2013-1-8,38.4,32.4,27.2,22.9,20.4,18.0,77,61,51,30.34,30.20,11,4,25,0.04
2013-1-9,46.1,38.2,31.3,35.5,28.6,20.0,77,68,59,30.31,29.97,13,8,31,0.01
2013-1-10,38.9,34.0,29.2,28.4,27.0,25.1,90,76,62,30.59,30.31,11,2,27,0.00
2013-1-11,43.5,38.9,29.7,40.8,32.7,20.4,93,79,46,30.44,29.91,12,3,24,0.09
2013-1-12,54.3,48.7,42.8,49.0,44.8,40.6,95,87,78,30.02,29.96,9,5,20,0.00
2013-1-13,62.9,56.3,49.1,54.4,51.1,46.7,93,83,72,29.97,29.71,15,4,35,0.00
2013-1-14,55.1,34.0,25.7,51.2,28.5,19.8,92,80,68,30.36,29.69,13,5,28,0.00
2013-1-15,31.0,26.2,22.9,22.5,20.0,18.5,87,77,61,30.42,30.20,3,0,11,0.00
2013-1-16,35.0,30.1,26.3,28.9,24.6,21.0,89,80,63,30.20,29.79,8,2,20,0.00
2013-1-17,32.3,22.8,14.5,27.6,18.5,12.4,91,84,64,30.18,29.86,9,3,23,0.00
2013-1-18,31.3,17.8,10.2,17.0,10.6,7.4,92,74,54,30.46,30.08,14,4,33,0.02
2013-1-19,45.8,39.4,31.3,29.6,23.2,15.9,63,52,41,30.09,29.61,14,9,32,0.01
2013-1-20,44.8,28.6,16.2,33.6,18.4,5.7,91,66,45,30.06,29.44,21,11,43,0.05
2013-1-21,19.1,15.5,10.2,14.4,9.0,-0.9,89,75,60,30.06,29.88,6,2,19,0.00
2013-1-22,11.4,6.8,3.1,1.8,-1.8,-5.3,82,68,49,30.22,29.91,11,6,26,0.00
2013-1-23,10.5,5.4,0.7,5.0,-0.0,-5.8,86,78,68,30.28,30.16,4,1,12,0.00
2013-1-24,12.0,7.3,3.7,7.4,3.1,-0.6,90,83,68,30.56,30.14,8,2,21,0.00
2013-1-25,15.4,9.2,2.9,9.2,4.8,-1.1,90,82,65,30.54,30.12,2,0,6,0.00
2013-1-26,20.2,12.9,3.7,11.4,7.6,1.3,92,80,63,30.44,30.13,3,1,10,0.00
2013-1-27,24.8,18.9,14.9,16.8,14.4,10.5,93,83,63,30.59,30.40,3,0,8,0.01
2013-1-28,41.1,33.3,20.7,40.6,30.0,14.1,98,88,61,30.40,29.88,9,4,21,0.29
2013-1-29,56.0,42.7,31.8,52.3,41.6,31.3,99,96,85,30.05,29.76,13,4,23,0.25
2013-1-30,61.2,56.9,53.1,53.9,50.1,47.8,87,78,70,29.77,28.99,19,12,39,0.02
2013-1-31,53.8,27.8,17.1,50.2,22.7,12.6,93,81,64,29.69,28.97,17,11,39,0.22
2013-2-1,20.3,15.8,12.3,13.2,10.6,7.8,90,80,65,30.22,29.69,10,4,25,0.00
2013-2-2,18.6,14.6,11.0,13.4,9.1,4.5,87,79,67,30.22,30.00,9,5,19,0.00
2013-2-3,22.9,16.9,12.3,15.6,12.0,7.5,93,82,52,30.00,29.80,5,1,15,0.00
2013-2-4,18.7,15.7,13.8,12.9,10.0,6.7,88,78,60,29.98,29.87,8,4,26,0.00
2013-2-5,25.2,18.8,11.6,17.4,13.9,9.2,91,81,64,29.99,29.87,6,0,12,0.01
2013-2-6,25.1,20.9,13.7,22.4,15.2,8.3,95,79,57,30.40,29.89,8,4,20,0.00
2013-2-7,29.1,22.2,12.3,23.3,15.9,8.0,89,77,65,30.45,30.11,4,1,14,0.01
2013-2-8,35.2,28.4,15.5,32.6,25.2,13.8,97,88,67,30.12,29.76,6,1,18,0.03
2013-2-9,17.4,15.1,10.3,15.5,13.2,8.2,93,92,91,30.45,30.05,0,0,0,0.00
2013-2-10,37.7,24.0,11.2,31.2,19.6,9.0,95,84,61,30.45,30.01,5,1,14,0.40
2013-2-11,49.9,36.9,32.0,40.2,30.0,22.5,92,76,59,30.02,29.57,15,9,33,0.05
2013-2-12,31.8,29.7,27.6,26.6,24.5,21.5,86,81,71,29.96,29.68,14,8,29,0.00
2013-2-13,37.8,28.8,22.5,24.2,22.4,20.6,94,78,55,29.92,29.72,4,0,14,0.00
2013-2-14,40.7,30.8,22.0,32.8,26.4,20.3,95,84,53,29.93,29.80,9,3,20,0.06
2013-2-15,35.9,31.1,22.1,33.1,24.1,15.7,92,75,61,30.05,29.78,12,6,31,0.00
2013-2-16,26.4,21.4,18.6,16.8,14.9,10.9,88,76,53,30.05,29.93,3,1,12,0.00
2013-2-17,18.6,12.5,7.8,15.2,9.0,2.6,92,86,71,30.20,29.90,10,3,25,0.00
2013-2-18,31.8,16.9,6.1,18.6,10.0,3.6,90,76,47,30.33,30.05,6,2,16,0.02
2013-3-4,25.2,24.6,22.9,21.4,20.7,18.9,87,85,83,30.06,30.01,7,5,18,0.01
2013-3-5,32.5,24.0,18.7,23.8,19.9,17.3,95,85,67,30.12,29.99,5,1,15,0.17
2013-3-6,37.7,28.9,18.3,30.3,25.7,16.9,96,88,72,30.15,29.97,4,1,14,0.14
2013-3-7,35.3,31.1,27.0,30.2,27.5,24.1,93,86,78,30.27,30.14,3,1,11,0.00
2013-3-8,37.1,30.3,24.5,25.7,23.1,21.5,93,75,57,30.41,30.25,5,1,17,0.01
2013-3-9,45.5,33.9,26.4,30.5,26.6,22.7,94,76,51,30.42,30.24,4,0,16,0.00
2013-3-10,60.7,48.7,37.4,30.6,24.8,19.1,67,40,30,30.25,29.98,9,4,23,0.00
2013-3-17,17.5,16.6,15.5,10.7,10.3,9.4,80,76,70,30.36,30.35,0,0,0,0.00
2013-3-18,32.1,23.2,13.8,29.4,17.5,9.3,93,79,54,30.37,29.76,6,1,19,0.00
2013-3-19,34.6,29.6,22.7,31.8,26.0,18.2,96,87,67,29.83,29.70,11,5,32,0.20
2013-3-20,30.1,24.1,20.1,22.4,17.9,14.0,91,78,55,29.85,29.81,10,6,24,0.01
2013-3-21,26.1,21.7,16.1,22.4,16.7,12.9,94,82,60,29.84,29.74,9,4,21,0.00
2013-3-22,27.4,24.7,21.3,24.1,22.3,19.4,94,90,86,29.94,29.75,10,5,23,0.00
2013-3-23,33.3,29.0,25.9,25.2,23.3,21.6,89,79,65,30.01,29.91,8,4,20,0.03
2013-3-24,36.5,28.6,20.9,26.1,22.4,19.0,95,78,58,30.02,29.74,3,1,11,0.03
2013-3-25,37.6,30.3,25.8,28.1,24.9,22.3,90,80,62,29.74,29.60,4,1,13,0.00
2013-3-26,43.6,34.1,27.0,32.2,27.3,24.2,92,77,56,29.93,29.73,6,2,18,0.00
2013-3-27,41.6,33.0,27.9,34.1,28.9,24.3,97,85,62,30.06,29.91,8,4,19,0.05
2013-3-28,39.3,33.5,29.6,34.3,30.6,28.9,98,89,70,30.21,30.04,5,2,16,0.11
2013-3-29,33.9,33.4,32.9,30.7,30.5,30.2,91,89,88,30.21,30.19,2,0,8,0.00
2013-3-30,48.7,38.1,29.8,30.3,25.4,21.7,82,62,40,30.20,30.06,5,2,15,0.00
2013-3-31,53.0,42.7,30.5,40.8,29.7,21.2,95,63,41,30.05,29.61,13,5,28,0.13
2013-4-1,42.2,32.5,22.4,39.1,27.8,17.5,95,83,59,29.93,29.55,13,6,33,0.05
2013-4-2,30.8,24.5,18.9,23.1,18.3,13.6,90,77,62,30.12,29.93,12,6,27,0.00
2013-4-3,33.1,26.7,21.9,21.2,17.6,13.7,88,69,45,30.39,30.11,12,6,28,0.00
2013-4-4,54.5,37.0,22.3,23.2,17.7,13.5,81,50,22,30.37,29.93,7,2,18,0.00
2013-4-5,42.6,35.6,25.3,28.9,20.7,11.8,73,56,33,30.14,29.87,8,4,22,0.00
2013-4-6,48.4,33.2,20.5,24.7,18.9,16.0,84,58,32,30.34,30.06,5,1,15,0.00
2013-4-7,68.1,52.3,41.0,47.0,31.7,17.5,78,47,34,30.06,29.71,18,8,39,0.00
2013-4-8,62.2,47.0,34.7,48.1,37.2,30.8,87,70,50,30.09,29.76,11,1,27,0.01
2013-4-9,63.7,50.7,42.4,50.9,43.4,39.7,98,78,49,30.08,29.75,12,5,30,0.65
2013-4-10,47.2,41.1,35.9,46.7,40.6,35.6,99,98,96,30.03,29.85,4,1,14,0.69
2013-4-11,35.9,31.8,29.5,35.6,30.7,27.8,99,96,83,30.16,29.96,4,0,14,0.31
2013-4-12,52.0,38.9,31.7,48.6,37.5,31.2,100,95,84,29.97,29.56,10,4,24,0.52
2013-4-13,41.7,38.2,35.1,36.5,33.4,30.9,92,83,68,29.93,29.77,9,5,20,0.01
2013-4-14,44.9,36.6,31.8,31.6,28.9,26.6,91,74,54,30.20,29.93,7,3,18,0.01
2013-4-15,71.8,53.5,32.4,48.8,39.7,27.0,83,62,42,30.18,30.01,12,4,24,0.00
2013-4-16,63.0,54.9,42.3,56.4,49.0,35.6,97,81,70,30.20,29.93,16,8,34,0.17
2013-4-17,54.3,43.6,34.4,39.8,33.1,29.8,83,67,45,30.33,30.19,4,1,14,0.00
2013-4-18,73.2,58.6,40.8,56.3,47.9,31.4,83,68,49,30.24,29.71,16,8,53,0.01
2013-4-19,71.7,56.4,38.5,59.7,49.2,30.4,92,77,56,29.72,29.33,16,10,39,0.09
2013-4-20,39.5,34.9,28.5,30.7,26.5,20.4,90,72,55,30.41,29.71,16,8,34,0.00
2013-4-21,43.7,31.8,23.0,26.9,22.2,16.3,87,69,49,30.70,30.41,3,1,11,0.00
2013-4-22,59.2,42.5,27.5,35.2,26.5,19.5,79,56,31,30.62,30.36,4,1,15,0.00
2013-4-23,65.0,49.5,35.1,40.6,33.6,27.7,78,56,35,30.36,29.95,7,2,17,0.00
2013-4-24,67.1,53.0,35.6,52.9,42.2,32.9,93,68,52,29.95,29.57,15,8,39,0.12
2013-4-25,53.9,41.9,32.6,37.3,31.2,24.8,93,69,35,30.30,29.95,10,3,23,0.10
2013-4-26,52.3,41.6,34.3,37.2,31.8,27.6,95,71,40,30.47,30.30,6,2,16,0.02
2013-4-27,66.8,51.5,34.5,39.4,33.3,28.7,82,53,29,30.45,30.22,3,1,11,0.00
2013-4-28,73.1,57.6,46.5,46.4,38.9,34.0,92,53,25,30.22,30.01,9,3,21,0.08
2013-4-29,60.6,53.8,46.4,51.4,47.2,43.1,93,79,67,30.05,29.95,8,4,22,0.10
2013-4-30,70.1,59.0,52.2,54.7,51.0,48.4,94,76,54,30.20,30.04,8,4,18,0.03
2013-5-1,76.5,64.9,53.5,49.4,44.2,35.1,79,52,24,30.32,30.21,7,1,15,0.00
2013-5-2,78.3,63.3,50.8,47.6,37.1,29.6,58,39,21,30.38,30.24,6,1,13,0.00
2013-5-3,75.7,64.6,53.9,49.5,42.4,37.5,61,45,33,30.27,30.18,5,1,13,0.00
2013-5-4,73.8,61.6,49.5,48.9,40.5,30.1,68,47,34,30.24,30.12,4,1,14,0.00
2013-5-5,74.9,62.7,52.3,46.5,41.4,35.1,68,48,27,30.18,30.05,3,1,13,0.00
2013-5-6,75.0,61.7,47.0,47.2,38.0,29.7,66,43,27,30.12,29.98,3,1,12,0.00
2013-5-7,77.4,64.8,52.8,53.6,49.9,46.8,85,61,36,30.08,29.97,3,1,12,0.00
2013-5-8,67.0,59.4,53.9,59.1,54.1,48.4,97,83,72,30.01,29.89,2,0,9,0.08
2013-5-9,67.7,58.8,51.0,59.5,55.4,50.2,98,89,67,29.94,29.84,4,1,12,0.13
2013-5-10,70.6,60.4,54.4,63.7,54.8,47.2,97,83,61,29.93,29.70,9,1,22,0.35
2013-5-11,57.5,52.6,43.9,55.8,49.2,42.2,97,89,69,29.75,29.63,8,4,17,0.19
2013-5-12,48.4,42.0,33.7,43.5,33.7,27.8,93,74,49,29.91,29.67,14,8,32,0.02
2013-5-13,46.2,37.8,31.0,32.6,29.8,27.3,87,73,55,30.14,29.91,8,5,24,0.00
2013-5-14,56.8,43.3,31.5,36.4,31.4,26.9,95,66,35,30.17,29.97,5,1,14,0.00
2013-5-15,79.0,58.9,42.9,60.2,46.5,34.8,96,65,46,29.97,29.52,13,4,30,0.03
2013-5-16,72.6,62.3,48.3,47.1,42.7,35.5,72,51,31,29.96,29.70,11,4,29,0.00
2013-5-17,63.4,51.8,40.2,44.3,39.4,34.0,89,65,42,30.21,29.96,2,0,10,0.00
2013-5-18,71.8,57.1,45.6,51.5,44.1,33.5,82,63,45,30.25,30.13,2,0,11,0.00
2013-5-19,77.7,64.3,55.0,62.9,56.5,50.7,92,77,58,30.13,29.97,5,1,14,0.00
2013-5-20,84.6,70.7,60.2,67.9,61.5,56.5,90,74,51,30.01,29.82,5,2,15,0.00
2013-5-21,86.8,71.5,61.1,71.7,64.1,56.8,96,79,48,29.87,29.70,6,1,17,0.10
2013-5-22,85.2,73.1,63.0,68.6,62.5,54.7,97,72,44,29.77,29.62,9,3,25,0.00
2013-5-23,70.8,64.5,44.7,62.8,58.1,43.7,97,80,65,29.81,29.66,8,4,21,0.41
2013-5-24,45.9,39.8,35.7,43.5,37.6,34.9,98,92,76,30.20,29.81,5,3,17,0.16
2013-5-25,54.1,44.9,35.4,39.2,36.1,34.0,95,73,49,30.21,30.14,7,3,21,0.00
2013-5-26,58.8,48.4,37.9,38.9,35.0,30.5,89,63,38,30.21,30.12,7,3,18,0.00
2013-5-27,68.3,54.5,43.2,41.5,36.7,33.2,69,53,31,30.27,30.13,4,1,10,0.00
2013-5-28,61.3,55.1,49.0,60.7,49.8,36.1,99,83,58,30.16,29.92,5,0,15,1.04
2013-5-29,78.0,69.6,60.9,67.7,62.8,59.8,98,80,61,29.99,29.89,10,5,24,0.11
2013-5-30,84.1,74.7,66.1,67.8,62.6,58.8,86,68,47,30.08,29.99,5,1,14,0.00
2013-5-31,87.5,76.8,68.9,67.4,62.7,59.5,77,63,43,30.04,29.88,5,1,12,0.00
2013-6-1,84.3,72.7,63.4,70.9,64.5,60.1,96,77,54,29.93,29.74,8,3,22,0.04
2013-6-2,74.3,66.9,57.5,66.5,61.2,51.8,97,83,59,29.82,29.65,10,4,26,0.24
2013-6-3,61.3,53.5,46.4,51.9,45.7,43.0,91,76,54,30.01,29.82,5,2,18,0.00
2013-6-4,64.7,53.5,43.5,45.4,40.5,34.9,91,65,35,30.16,30.00,5,2,13,0.00
2013-6-5,68.3,56.1,47.8,50.8,43.5,35.3,79,64,45,30.20,30.07,2,0,12,0.00
2013-6-6,56.1,53.3,51.2,55.5,50.6,44.0,99,91,73,30.07,29.83,1,0,10,1.46
2013-6-7,60.5,56.8,54.0,60.2,56.5,53.4,99,99,97,29.83,29.77,1,0,5,0.13
2013-6-8,59.6,55.9,52.9,57.4,54.8,52.5,100,96,87,30.07,29.77,4,1,11,0.05
2013-6-9,74.5,61.8,53.1,59.5,54.2,50.1,91,77,53,30.18,30.07,3,1,8,0.00
2013-6-10,65.2,61.6,57.1,62.8,59.1,53.0,99,91,81,30.10,29.69,2,0,12,0.28
2013-6-11,64.1,61.4,56.3,63.0,60.3,53.4,99,96,87,29.81,29.61,6,3,19,0.42
2013-6-12,73.3,62.6,50.5,59.9,54.5,49.8,99,77,51,29.92,29.75,2,0,8,0.00
2013-6-13,61.0,57.1,52.5,58.2,56.1,52.0,99,96,86,29.76,29.46,5,1,16,1.12
2013-6-14,69.9,59.5,52.3,60.0,55.3,52.0,100,87,63,29.96,29.75,5,2,16,0.00
2013-6-15,70.2,61.3,51.9,56.0,51.5,45.3,95,73,43,30.03,29.94,6,2,15,0.00
2013-6-16,70.9,63.9,59.6,64.4,57.9,50.8,96,81,70,29.94,29.67,8,4,21,0.07
2013-6-17,75.8,65.9,58.4,62.8,59.2,53.5,96,80,47,29.90,29.80,9,2,22,0.01
2013-6-18,65.6,58.5,50.4,56.4,52.2,45.3,98,81,52,30.00,29.85,3,1,12,0.01
2013-6-19,65.1,56.0,46.5,48.7,44.8,39.2,92,68,46,30.19,30.00,4,1,10,0.00
2013-6-20,74.9,60.1,47.5,57.5,46.2,39.4,84,62,41,30.24,30.19,3,0,9,0.00
2013-6-21,80.6,67.5,54.9,61.2,52.3,43.7,83,60,42,30.25,30.14,1,0,7,0.00
2013-6-22,83.5,73.5,62.6,68.8,62.8,54.8,85,70,57,30.15,29.98,5,1,14,0.00
2013-6-23,84.1,75.7,69.7,75.3,68.0,63.6,95,78,63,30.02,29.97,7,2,20,0.09
2013-6-24,84.9,76.7,71.2,71.3,65.6,61.2,82,69,52,30.01,29.91,7,3,16,0.00
2013-6-25,79.7,73.3,69.5,69.2,65.0,61.2,83,75,64,29.91,29.76,8,3,16,0.00
2013-6-26,80.5,71.8,65.8,70.3,65.2,62.4,93,81,57,29.80,29.75,6,2,15,0.01
2013-6-27,78.7,69.9,62.8,71.3,65.9,61.4,98,88,73,29.79,29.59,2,0,13,1.35
2013-6-28,64.5,62.2,58.8,64.1,61.8,58.5,99,99,97,29.59,29.47,2,0,9,0.60
2013-6-29,73.1,64.1,58.4,66.6,62.2,58.1,100,94,77,29.68,29.48,2,0,10,0.36
2013-6-30,74.4,66.3,59.1,67.8,62.6,58.5,99,89,72,29.91,29.67,2,0,9,0.00
2013-7-1,64.2,61.5,58.2,62.7,60.6,57.9,99,97,92,30.03,29.89,3,1,12,0.42
2013-7-2,80.3,65.1,57.4,74.5,63.6,57.1,100,95,81,30.09,30.00,2,0,8,0.39
2013-7-3,87.3,71.7,63.5,77.6,68.1,62.9,100,90,64,30.14,30.07,3,0,10,0.00
2013-7-4,81.9,74.1,67.7,73.9,69.4,65.5,97,86,67,30.15,30.08,5,1,13,0.07
2013-7-5,81.9,72.8,67.5,73.7,69.2,66.0,96,89,70,30.13,30.02,5,1,12,0.06
2013-7-6,85.0,74.5,67.1,71.6,67.4,63.4,97,80,58,30.14,30.01,3,0,9,0.00
2013-7-7,80.8,73.3,67.8,71.1,68.1,63.6,99,84,67,30.04,29.91,5,2,13,0.15
2013-7-8,82.2,72.0,66.8,71.7,66.6,62.3,93,84,59,30.04,29.95,4,1,11,0.00
2013-7-9,81.4,72.0,66.3,72.2,67.8,64.3,96,87,68,30.03,29.89,4,0,10,0.04
2013-7-10,82.7,74.7,69.5,73.6,70.1,64.3,95,86,70,29.89,29.70,10,3,20,0.02
2013-7-11,75.3,66.3,58.7,63.8,59.7,55.6,95,80,61,30.01,29.79,4,1,15,0.01
2013-7-12,73.0,64.0,58.6,64.1,59.5,56.3,98,86,65,30.18,30.01,2,0,10,0.00
2013-7-13,77.4,68.8,59.3,71.1,64.8,56.7,99,88,75,30.24,30.15,1,0,7,0.00
2013-7-14,88.8,75.6,65.9,75.1,69.1,64.7,97,82,60,30.30,30.21,2,0,9,0.00
2013-7-15,85.1,76.4,69.7,75.3,70.1,62.3,96,82,63,30.28,30.20,1,0,10,0.00
2013-7-16,74.9,70.2,68.3,68.3,63.4,61.4,85,79,73,30.26,30.19,1,0,5,0.00
2013-7-17,88.4,79.2,69.9,77.3,71.2,64.5,87,77,59,30.21,30.05,6,2,15,0.00
2013-7-18,87.9,78.9,72.9,77.3,72.8,68.0,93,82,66,30.08,29.92,5,1,15,0.13
2013-7-19,87.0,79.1,66.3,74.7,70.5,64.3,96,76,61,29.93,29.70,10,5,23,0.41
2013-7-20,74.6,67.5,61.3,69.1,64.7,59.7,98,91,77,29.86,29.66,7,1,21,26.15
2013-7-21,74.2,66.3,58.7,65.4,61.4,56.9,98,85,67,30.00,29.87,1,0,10,11.20
2013-7-22,77.4,67.6,58.1,69.4,63.2,56.1,97,86,70,29.99,29.77,1,0,9,0.29
2013-7-23,79.4,69.4,62.3,69.7,64.9,58.4,99,87,61,29.77,29.60,5,1,16,0.15
2013-7-24,63.3,58.6,50.4,58.4,52.0,47.6,92,79,62,30.05,29.68,4,2,15,0.00
2013-7-25,71.2,59.1,48.1,57.9,51.3,46.3,95,77,53,30.14,30.05,1,0,9,0.00
2013-7-26,76.2,62.8,50.7,61.2,54.7,49.3,96,77,50,30.13,30.01,2,0,8,0.00
2013-7-27,76.8,66.1,56.7,67.2,61.2,54.6,98,85,67,30.01,29.82,4,0,13,0.12
2013-7-28,71.9,64.6,56.4,65.8,61.8,54.7,98,91,74,29.97,29.80,2,0,10,0.14
2013-7-29,66.8,59.5,53.1,58.6,54.9,51.4,95,85,67,30.14,29.97,5,1,9,0.01
2013-7-30,71.3,62.6,55.8,61.8,56.6,53.7,94,82,64,30.21,30.13,4,1,12,0.00
2013-7-31,75.8,64.2,56.2,62.6,58.0,54.5,95,82,60,30.16,29.95,3,0,8,0.00
2013-8-4,65.5,57.9,54.0,58.3,54.8,52.2,95,89,71,29.98,29.91,5,2,15,0.00
2013-8-5,73.1,60.1,50.3,57.4,51.9,48.9,96,77,45,30.11,30.02,2,0,8,0.00
2013-8-6,79.1,65.2,53.3,61.4,55.3,49.6,91,72,48,30.06,29.98,1,0,14,0.00
2013-8-7,78.1,69.2,62.4,67.5,62.7,57.6,87,80,67,29.99,29.87,5,2,16,0.00
2013-8-8,81.9,70.4,63.8,71.5,66.6,61.3,98,88,68,29.94,29.88,4,1,11,0.26
2013-8-9,73.3,66.8,61.6,68.1,65.0,58.0,99,94,77,29.92,29.82,3,1,10,0.75
2013-8-10,56.6,55.0,54.3,50.9,50.2,49.5,86,84,81,30.09,30.08,0,0,0,0.00
2013-8-11,71.9,61.9,52.9,58.0,53.8,49.1,95,76,56,30.13,30.04,3,0,9,0.00
2013-8-12,74.6,65.8,56.9,64.4,58.3,52.6,91,77,63,30.05,29.85,3,0,11,0.00
2013-8-13,70.0,62.8,54.3,65.8,58.5,47.2,98,86,70,29.85,29.73,6,3,20,0.64
2013-8-14,64.1,55.8,49.8,55.6,49.7,46.2,97,81,60,30.09,29.83,6,3,19,0.02
2013-8-15,69.8,58.9,49.4,55.7,50.7,47.0,92,76,55,30.15,30.07,5,1,15,0.00
2013-8-16,74.9,62.0,51.3,59.2,53.3,49.3,93,75,51,30.20,30.12,3,0,9,0.00
2013-8-17,78.7,65.2,54.8,62.0,56.0,51.6,89,74,47,30.29,30.20,1,0,5,0.00
2013-8-18,74.7,63.2,57.5,61.9,56.5,52.7,90,80,60,30.25,30.19,1,0,5,0.00
2013-8-19,78.6,68.2,60.7,63.9,59.8,57.3,91,76,54,30.11,30.01,3,1,10,0.00
2013-8-20,79.2,68.9,59.8,65.8,60.0,55.6,88,75,54,30.13,30.05,4,1,11,0.00
2013-8-21,82.6,70.9,61.3,68.1,62.1,58.0,89,75,56,30.16,30.01,2,0,8,0.00
2013-8-22,80.9,70.2,64.2,69.8,64.6,60.1,97,83,67,30.02,29.86,9,2,24,0.20
2013-8-23,71.0,62.9,55.5,60.7,56.4,52.4,97,81,60,30.20,29.96,3,0,9,0.00
2013-8-24,73.9,61.8,51.9,58.6,53.9,50.7,98,78,51,30.36,30.20,1,0,9,0.01
2013-8-25,78.2,66.3,53.6,62.0,56.0,50.5,93,71,47,30.34,30.13,5,1,15,0.00
2013-8-26,76.3,67.4,63.0,69.2,63.2,57.6,97,87,73,30.18,29.89,7,3,22,0.67
2013-8-27,80.4,71.5,66.2,72.2,68.2,65.5,98,90,74,29.93,29.86,3,0,9,0.00
2013-8-28,80.8,71.6,66.3,73.2,68.6,64.8,99,91,74,29.93,29.83,3,0,11,0.26
2013-8-29,79.8,69.6,62.9,71.4,66.1,62.3,99,90,67,30.03,29.93,2,0,9,0.01
2013-8-30,82.2,70.8,60.2,72.0,64.2,55.9,97,81,56,30.01,29.76,2,0,8,0.00
2013-8-31,79.6,72.2,66.3,71.5,67.8,65.0,96,86,71,29.84,29.71,6,2,13,0.00
2013-9-1,81.8,70.6,63.3,72.4,67.0,62.4,99,89,71,29.83,29.73,5,0,13,0.13
2013-9-2,79.1,69.3,58.6,72.8,66.2,56.0,99,90,70,29.78,29.66,5,1,17,0.20
2013-9-3,62.7,59.4,55.6,57.8,55.6,53.8,95,87,77,29.95,29.76,7,3,18,0.00
2013-9-4,56.5,55.6,54.7,54.5,53.7,53.0,94,93,93,29.95,29.95,2,1,7,0.00
2013-9-5,47.3,46.7,46.0,41.8,41.3,40.9,84,81,80,30.23,30.21,0,0,1,0.01
2013-9-6,67.4,54.1,42.8,51.0,44.9,38.6,91,73,46,30.30,30.11,3,0,10,0.00
2013-9-7,64.1,59.2,52.6,58.9,50.7,44.9,87,74,65,30.11,29.87,6,1,17,0.00
2013-9-8,63.1,58.2,46.5,61.2,51.6,42.5,98,80,53,30.12,29.85,4,1,13,0.10
2013-9-9,76.1,59.6,44.8,61.7,51.3,41.8,91,75,53,30.17,29.98,5,1,17,0.00
2013-9-10,87.0,75.8,64.4,75.8,69.3,60.0,95,81,65,29.99,29.91,8,4,19,0.12
2013-9-11,89.1,79.9,73.0,73.3,70.2,63.4,87,73,55,30.02,29.86,7,4,19,0.00
2013-9-12,73.3,66.6,57.2,67.6,63.0,56.1,97,88,75,29.90,29.70,5,1,14,0.12
2013-9-13,57.1,51.7,46.8,55.9,50.6,46.3,98,96,90,30.01,29.73,3,1,12,0.25
2013-9-14,58.6,49.2,44.2,46.0,43.7,40.1,98,83,59,30.15,30.00,4,1,13,0.01
2013-9-15,63.0,54.5,45.2,53.7,47.2,40.2,92,77,62,30.19,30.07,4,0,13,0.02
2013-9-16,53.4,47.8,39.9,51.9,46.7,39.1,97,96,93,30.39,30.07,2,0,11,0.09
2013-9-17,63.9,48.3,35.9,47.8,41.7,35.4,99,80,49,30.52,30.33,1,0,8,0.00
2013-9-18,74.0,57.9,46.0,52.9,44.6,38.8,83,63,34,30.33,30.11,2,0,8,0.00
2013-9-19,76.1,63.7,53.4,59.4,51.9,44.7,86,67,46,30.13,30.01,2,0,8,0.00
2013-9-20,81.3,67.7,56.9,65.2,59.0,54.0,93,75,53,30.02,29.77,6,1,19,0.00
2013-9-21,68.3,61.3,50.9,62.4,57.9,50.1,98,89,71,29.77,29.60,6,2,21,13.73
2013-9-22,52.0,48.6,45.6,50.1,44.2,40.5,97,85,69,30.03,29.71,5,2,16,9.42
2013-9-23,56.6,47.7,42.0,43.8,41.9,38.9,96,81,57,30.16,30.03,4,1,11,19.27
2013-9-24,63.4,50.1,41.5,48.3,42.7,39.2,96,77,48,30.16,30.02,3,0,9,16.27
2013-9-25,66.1,53.3,44.2,51.8,44.2,32.2,91,72,46,30.04,29.96,3,0,7,0.00
2013-9-26,67.4,54.8,46.0,55.6,47.7,39.5,94,78,61,30.16,30.01,2,0,9,0.00
2013-9-27,67.5,54.1,45.8,56.6,50.2,44.7,98,88,60,30.27,30.16,2,0,7,0.00
2013-9-28,73.7,58.2,48.0,58.8,51.9,46.8,99,82,53,30.31,30.19,1,0,8,0.01
2013-9-29,74.1,60.0,50.3,56.3,50.5,46.2,89,72,46,30.19,30.00,5,1,17,0.00
2013-9-30,74.5,63.1,56.0,60.9,55.1,49.3,92,76,59,30.02,29.93,2,0,8,0.00
2013-10-1,72.2,63.0,56.7,59.9,56.3,53.1,96,80,53,30.02,29.91,4,1,12,0.00
2013-10-2,73.1,64.6,56.1,63.3,58.1,53.8,92,80,59,30.08,29.91,7,3,18,0.00
2013-10-3,70.9,58.8,48.3,53.7,48.0,38.7,96,71,34,30.13,30.02,2,0,6,0.01
2013-10-4,71.8,63.2,56.8,67.8,61.2,49.2,98,93,76,30.05,29.97,4,0,11,0.15
2013-10-5,60.2,57.9,56.4,59.5,57.3,55.8,99,98,95,30.09,30.03,1,0,7,0.10
2013-10-6,79.7,67.1,57.0,71.2,63.7,56.5,100,90,71,30.03,29.74,6,2,19,0.71
2013-10-7,69.8,58.7,46.9,64.1,53.0,42.5,97,82,60,30.03,29.61,9,5,23,0.55
2013-10-8,61.0,49.9,42.7,47.3,43.5,41.3,97,81,51,30.37,30.03,3,1,11,0.00
2013-10-9,66.8,52.8,42.7,48.7,43.6,39.8,96,73,45,30.42,30.30,2,0,8,0.00
2013-10-10,63.7,51.6,43.2,47.6,42.7,36.3,94,73,49,30.30,30.16,1,0,8,0.00
2013-10-11,68.8,54.1,45.6,51.4,46.2,43.5,93,76,43,30.17,30.12,1,0,8,0.00
2013-10-12,74.3,59.2,47.7,50.2,43.4,38.6,91,59,28,30.20,30.13,2,0,8,0.00
2013-10-13,70.4,58.5,49.8,60.0,53.3,42.0,98,84,57,30.27,30.20,3,0,10,0.18
2013-10-14,58.0,53.2,46.2,55.5,51.2,44.3,99,93,76,30.33,30.26,4,1,13,0.18
2013-10-15,64.2,54.4,44.5,57.2,50.9,43.2,99,88,69,30.30,29.98,4,0,15,0.00
2013-10-16,62.9,58.8,53.3,56.7,52.2,47.0,93,79,63,29.98,29.76,7,4,20,0.13
2013-10-17,60.4,53.5,48.1,51.0,48.9,46.2,97,85,64,29.88,29.66,4,1,13,0.47
2013-10-18,55.6,49.5,46.5,48.9,43.5,38.3,98,81,59,29.92,29.71,8,4,22,0.12
2013-10-19,59.9,51.3,41.0,45.6,42.5,38.3,93,73,56,29.91,29.64,7,3,18,0.04
2013-10-20,48.0,42.7,38.6,41.6,38.7,35.9,92,86,75,29.99,29.74,5,3,19,0.02
2013-10-21,63.1,53.6,42.0,40.6,38.9,37.5,93,60,39,30.01,29.78,7,3,20,0.01
2013-10-22,53.7,43.3,36.8,46.5,36.6,30.7,97,78,55,29.86,29.73,8,3,27,0.13
2013-10-23,42.9,37.3,32.9,36.9,33.9,31.0,95,87,74,29.84,29.70,4,0,12,0.01
2013-10-24,45.9,36.8,31.2,35.7,31.3,26.9,95,82,48,30.03,29.81,11,4,27,0.04
2013-10-25,46.4,37.7,32.7,37.9,34.4,31.7,98,88,68,30.21,30.04,4,1,16,0.02
2013-10-26,40.1,39.9,39.5,33.4,32.9,32.5,78,76,74,29.83,29.83,5,4,17,0.02
2013-10-27,46.1,39.0,34.1,35.1,33.4,30.6,94,81,61,30.09,29.83,6,2,19,0.00
2013-10-28,46.5,39.9,30.9,38.5,31.3,22.0,81,71,54,30.41,30.06,6,2,15,0.00
2013-10-29,45.3,35.0,25.4,30.5,26.3,21.4,87,71,49,30.50,30.33,2,0,7,0.00
2013-10-30,56.6,44.2,36.3,41.2,36.3,30.0,90,75,50,30.32,30.12,3,0,7,0.00
2013-10-31,63.6,56.1,40.3,56.9,51.4,37.0,96,84,71,30.12,29.40,12,5,28,0.37
2013-11-1,61.1,55.3,47.6,57.3,47.4,39.9,93,76,55,29.65,29.19,15,9,37,0.29
2013-11-2,48.0,43.0,33.4,43.8,40.8,32.6,97,92,80,29.98,29.60,6,1,14,0.23
2013-11-3,34.5,30.2,24.5,32.6,25.4,19.9,97,83,62,30.57,29.98,3,1,15,0.00
2013-11-4,41.1,31.8,23.0,25.9,21.4,17.2,87,67,43,30.70,30.49,2,0,14,0.00
2013-11-5,54.0,44.7,33.4,36.6,29.1,17.6,63,54,47,30.52,30.35,6,2,15,0.00
2013-11-6,64.8,53.8,45.9,51.2,43.1,34.0,87,67,56,30.35,29.81,9,5,28,0.01
2013-11-7,55.3,40.9,34.5,52.3,37.2,29.6,96,87,73,29.98,29.77,8,3,22,0.50
2013-11-8,37.8,34.1,30.3,31.6,28.2,25.9,90,79,64,30.25,29.96,10,3,25,0.00
2013-11-9,48.1,39.7,32.8,39.0,29.8,27.2,85,68,53,30.25,29.81,9,3,23,0.00
2013-11-10,47.9,40.8,35.5,41.6,34.2,29.5,94,78,67,30.15,29.79,13,6,34,0.14
2013-11-11,42.9,35.3,26.1,34.3,29.6,24.9,95,80,57,30.17,29.94,9,4,23,0.04
2013-11-12,29.1,24.3,20.7,24.9,20.8,17.5,95,86,74,30.42,30.11,7,2,20,0.01
2013-11-13,34.5,26.1,16.2,25.1,19.4,13.5,93,77,48,30.47,30.12,13,4,27,0.03
2013-11-14,50.1,40.0,32.5,23.5,16.6,11.7,61,40,24,30.15,30.03,13,8,37,0.00
2013-11-15,50.4,45.2,40.2,24.3,19.6,15.7,42,36,28,30.14,30.06,9,5,22,0.00
2013-11-16,60.0,48.6,39.8,41.1,33.6,24.1,74,57,41,30.26,30.05,7,2,22,0.00
2013-11-17,57.8,53.5,48.0,52.6,48.5,41.3,91,83,75,30.05,29.36,12,6,30,0.12
2013-11-18,53.7,43.4,32.6,48.3,35.4,25.1,94,73,58,29.88,29.36,16,10,40,0.04
2013-11-19,34.0,30.7,24.7,28.5,24.4,20.4,93,77,64,30.48,29.88,11,4,30,0.00
2013-11-20,25.0,21.4,18.0,21.4,18.8,15.8,92,90,85,30.60,30.48,0,0,4,0.00
2013-11-21,42.9,37.2,29.5,36.6,24.4,12.0,92,61,42,30.50,30.28,9,3,21,0.02
2013-11-22,45.6,40.5,29.6,44.5,39.2,26.6,97,95,87,30.27,29.99,10,3,28,0.20
2013-11-23,34.0,24.9,14.0,26.8,20.7,9.2,92,84,58,30.18,29.99,12,6,31,0.00
2013-11-24,19.7,14.8,11.5,14.2,11.2,8.8,92,86,70,30.42,30.17,9,5,24,0.00
2013-11-25,31.1,30.7,29.6,20.8,14.7,9.0,69,52,39,30.18,30.16,9,6,25,0.01
2013-11-26,33.4,30.8,29.2,29.8,26.6,20.5,97,85,69,30.19,29.82,7,2,21,0.01
2013-11-27,30.3,27.1,19.0,29.6,25.9,16.9,98,95,89,29.89,29.62,7,2,23,0.00
2013-11-28,23.6,19.2,12.6,18.3,14.8,9.5,93,83,66,30.47,29.89,7,2,21,0.01
2013-11-29,25.7,19.1,13.4,18.9,15.2,10.5,95,85,67,30.79,30.47,2,0,7,0.05
2013-11-30,29.9,22.3,10.3,22.8,16.5,8.3,93,79,62,30.78,30.24,8,2,23,0.00
2013-12-1,39.1,33.9,29.9,32.4,28.5,22.9,96,81,66,30.25,29.98,8,2,15,0.20
2013-12-2,39.3,35.1,30.9,32.5,31.1,29.4,95,85,76,29.98,29.87,1,0,7,0.08
2013-12-3,36.9,30.7,26.5,29.4,27.5,25.3,96,88,72,30.03,29.91,1,0,7,0.00
2013-12-4,49.6,38.4,29.6,39.8,34.6,26.9,97,87,67,30.06,29.92,5,0,14,0.02
2013-12-5,59.4,49.6,38.5,53.3,44.9,34.8,94,84,74,29.98,29.76,12,6,27,0.01
2013-12-6,38.2,30.4,26.3,35.2,28.0,24.2,96,91,84,30.27,29.98,4,1,14,0.19
2013-12-7,26.6,23.9,20.2,25.1,18.5,13.3,95,80,63,30.59,30.25,7,2,21,0.00
2013-12-8,26.2,21.2,15.1,21.1,14.5,10.0,91,75,58,30.62,30.25,0,0,0,0.00
2013-12-9,38.9,32.2,23.3,34.3,27.8,21.1,92,84,76,30.25,29.88,0,0,0,0.16
2013-12-10,29.8,22.6,16.2,23.4,16.3,9.8,92,77,62,30.08,29.93,0,0,0,0.00
2013-12-11,21.2,17.8,10.9,19.0,14.1,6.5,93,85,73,30.31,30.08,0,0,0,0.00
2013-12-12,16.1,12.4,6.8,12.7,7.5,3.2,90,80,70,30.37,30.10,0,0,0,0.00
2013-12-13,23.0,15.7,9.2,18.4,12.7,5.5,93,88,76,30.43,30.07,0,0,0,0.00
2013-12-14,24.3,11.5,4.9,22.6,9.1,2.1,95,90,84,30.48,29.80,0,0,0,0.00
2013-12-15,24.6,22.5,19.8,23.3,20.9,18.4,96,94,85,29.80,29.65,0,0,0,0.00
2013-12-16,18.4,13.3,6.4,11.8,8.9,4.1,92,83,72,30.23,29.88,0,0,0,0.00
2013-12-17,27.4,18.4,3.3,23.4,15.4,0.8,94,88,79,30.20,29.95,0,0,0,0.00
2013-12-18,26.9,24.8,22.4,24.4,21.8,19.2,94,88,78,30.11,29.96,0,0,0,0.00
2013-12-19,39.2,33.2,24.7,31.1,25.2,16.4,89,73,63,30.07,29.93,0,0,0,0.24
2013-12-20,47.6,42.0,33.8,45.3,38.2,31.0,94,86,73,30.02,29.78,0,0,1,0.07
2013-12-21,55.1,44.9,30.0,52.0,43.3,29.3,98,94,87,29.86,29.73,0,0,1,0.95
2013-12-22,47.9,34.5,28.8,47.6,33.9,28.3,99,98,94,29.98,29.58,0,0,1,0.20
2013-12-23,38.1,32.9,22.8,36.8,29.8,19.1,97,88,73,30.25,29.97,0,0,0,0.01
2013-12-24,23.1,17.8,8.1,20.3,15.0,5.5,92,89,85,30.50,30.21,5,1,16,0.00
2013-12-25,22.0,13.2,2.9,14.3,8.8,0.4,92,83,67,30.58,30.28,4,0,12,0.00
2013-12-26,30.4,25.2,21.5,25.4,19.8,13.9,87,80,71,30.30,30.09,10,4,24,0.00
2013-12-27,31.9,26.2,19.4,26.5,22.2,14.9,90,85,79,30.31,30.13,8,4,17,0.00
2013-12-28,43.1,38.7,32.4,33.4,29.9,26.0,77,70,62,30.12,29.96,13,6,29,0.04
2013-12-29,45.4,39.8,33.7,37.7,31.8,25.4,96,75,48,29.95,29.62,11,5,27,0.22
2013-12-30,31.2,16.2,8.4,28.9,13.3,5.9,96,88,80,30.24,29.72,8,3,23,0.00
2013-12-31,22.4,15.0,11.0,17.1,9.9,4.2,90,80,71,30.28,30.00,12,5,29,0.00
2014-1-1,17.6,13.8,10.4,11.7,8.2,5.1,91,78,62,30.44,30.27,5,2,16,0.00
2014-1-2,11.7,8.1,4.0,9.1,5.7,1.5,91,90,88,30.33,29.99,5,2,18,0.00